Terminal Aerodrome Forecast
Issued by NWS Chicago, IL

Home | Current Version | Previous Version | Graphics & Text | Print | Product List | Glossary On
Versions: 1 2 3 4 5 6 7 8 9 10 11 12 13 14 15 16 17 18 19 20 21 22 23 24 25 26 27 28 29 30 31 32 33 34 35 36 37
000
FTUS43 KLOT 191600 AAB
TAFRFD
TAF AMD
KRFD 191601Z 1916/2012 24011G16KT P6SM BKN018
     FM191800 26012G18KT P6SM BKN035
     FM192000 27012G20KT P6SM SCT040
     FM200100 30006KT P6SM SCT040
     FM200700 VRB03KT 3SM BR SCT250=

USA.gov is the U.S. government's official web portal to all federal, state and local government web resources and services.